Tracking 35274 objects as of 12-Sep-2026
HD Live streaming from Space Station
objects crossing your sky now

SALYUT 7 DEB


SALYUT 7 DEB is no longer on orbit


NORAD ID: 15275
Int'l Code: 1982-033DK
Launch date: April 19, 1982
Source: Commonwealth of Independent States (former USSR) (CIS)
Launch site: TYURATAM MISSILE AND SPACE COMPLEX (TTMTR)
Decay date: 1984-12-11

Note: This is SATELLITE DEBRIS
Your satellite tracking list
Your tracking list is empty




NASA's NSSDC Master Catalog

Two Line Element Set (TLE):
1 15275U 82033 DK 84345.09755376  .04852854 +54341-4 +11805-2 0  9996
2 15275 051.6179 180.8320 0008576 262.3605 098.0427 16.28474205152741
Source of the keplerian elements: AFSPC